Location: Bernay
(48.6766°N, 2.9386°E)
Time: 21:39:56
(UTC+00:00)

Cosmos 1980 Rocket - Pass Details

Date: 12 January 2026
Orbit: 829 x 848 km, 71.0° (Epoch: 17 February)

Event Time Altitude Azimuth Distance (km) Brightness Sun altitude
Rises 18:25:03 0° 336° (NNW) 3,382 5.5 -20.6°
Reaches altitude 10° 18:28:33 10° 358° (N) 2,446 4.5 -21.2°
Enters shadow 18:30:23 14° 16° (NNE) 2,145 4.1 -21.5°
